     K17DH0J 1C2017 04 02.48993812 42 19.43 +01 27 06.0                WEN149T09
     K17DH0J 1C2017 04 27.41736312 40 30.02 +01 37 34.9                WEN149T09
     K17DH0J 1C2019 04 04.55181112 52 45.20 +00 13 44.7                WEN149T09
     K17DH0J 1C2019 04 06.47395812 52 36.40 +00 14 38.8                WEN149T09
     K17DH0J 1C2019 04 06.52851512 52 36.14 +00 14 40.4                WEN149T09
Observer details:
T09 Subaru Telescope, Maunakea.  Observers , H. Aihara, Y. AlSayyad, M. Ando,
    R. Armstrong, J. Bosch, E. Egami, H. Furusawa, J. Furusawa, S. Harasawa,
    Y. Harikane, B.-C. Hsieh, H. Ikeda, K. Ito, I. Iwata, T. Kodama, M. Koike,
    M. Kokubo, Y. Komiyama, X. Li, Y. Liang, Y.-T. Lin, R. H. Lupton, N. B.
    Lust, L. A. MacArthur, K. Mawatari, S. Mineo, H. Miyatake, S. Miyazaki, S.
    More, T. Morishima, H. Murayama, K. Nakajima, F. Nakata, A. J. Nishizawa,
    M. Oguri, N. Okabe, Y. Okura, Y. Ono, K. Osato, M. Ouchi, Y.-C. Pan, A. A.
    Plazas Malagon, P. A. Price, S. L. Reed, E. S. Rykoff, T. Shibuya, M.
    Simunovic, M. A. Strauss, K. Sugimori, Y. Suto, N. Suzuki, M. Takada, Y.
    Takagi, T. Takata, S. Takita, M. Tanaka, S. Tang, D. S. Taranu, T. Terai,
    Y. Toba, E. L. Turner, H. Uchiyama, B. Vijarnwannaluk, C. Z. Waters, Y.
    Yamada, N. Yamamoto, T. Yamashita.  Measurers S. Deen, A. Yamauchi.  8.3-m
    Subaru Telescope + CCD, 8.2-m f/2.0 reflector + CCD(HSC).
Orbital elements:
2017 DC170                                                                      
Epoch 2024 Oct. 17.0 TT = JDT 2460600.5                 Alexandersen            
M 251.43556              (2000.0)            P               Q                  
n   0.00327892     Peri.  219.52371     +0.71615398     +0.69568831             
a  44.8727143      Node    96.29682     -0.62522855     +0.67515953             
e   0.0856059      Incl.    3.23245     -0.31018178     +0.24531078             
P 301              H    7.94          G   0.15           U   5                  
Residuals in seconds of arc
K153U  T09  0.0   0.0     K172L  T09  0.0   0.3-    K172N  T09  0.0   0.3+ 
K153U  T09  0.1-  0.0     K172L  T09  0.1+  0.1-    K172N  T09  0.2-  0.0  
K153U  T09  0.1+  0.1-    K172L  T09  0.2-  0.1-    K172N  T09  0.1-  0.1+ 
K1645  T09  0.0   0.0     K172L  T09  0.1-  0.2+    K172N  T09  0.1+  0.1- 
K1645  T09  0.0   0.0     K172L  T09  0.2-  0.0     K174R  T09  0.0   0.0  
K172L  T09  0.0   0.2+    K172L  T09  0.1+  0.1-    K1943  T09  0.0   0.1- 
K172L  T09  0.6+  0.1+    K172N  T09  0.0   0.0     
2017 DD170                                                                      
Epoch 2024 Oct. 17.0 TT = JDT 2460600.5                 Alexandersen            
M 267.40793              (2000.0)            P               Q                  
n   0.00419469     Peri.  116.63493     +0.47783434     +0.87827862             
a  38.0775857      Node   182.15651     -0.87569344     +0.47780538             
e   0.0363935      Incl.   27.45528     +0.06953662     -0.01812931             
P 235              H    8.12          G   0.15           U   5                  
Residuals in seconds of arc
K153U  T09  0.0   0.1-    K172L  T09  0.3+  0.2-    K172N  T09  0.0   0.1+ 
K153U  T09  0.0   0.1+    K172L  T09  0.2-  0.0     K174R  T09  0.0   0.1- 
K153U  T09  0.0   0.0     K172L  T09  0.1+  0.1+    K1946  T09  0.0   0.1- 
K1644  T09  0.0   0.1+    K172L  T09  0.0   0.1+    K1946  T09  0.0   0.0  
K1644  T09  0.0   0.1-    K172N  T09  0.0   0.0     
K172L  T09  0.0   0.2+    K172N  T09  0.1-  0.1-    
2017 DE170                                                                      
Epoch 2024 Oct. 17.0 TT = JDT 2460600.5                 Alexandersen            
M   9.97966              (2000.0)            P               Q                  
n   0.00126814     Peri.  136.84091     -0.94738405     -0.30229639             
a  84.5324967      Node    26.12248     +0.18741560     -0.79042452             
e   0.5466908      Incl.   13.83203     +0.25949732     -0.53277197             
P 777              H    8.32          G   0.15           U   7                  
Residuals in seconds of arc
K1644  T09  0.0   0.0     K172L  T09  0.0   0.2+    K172N  T09  0.2-  0.0  
K1644  T09  0.0   0.0     K172L  T09  0.1-  0.1-    K172N  T09  0.1+  0.1- 
K172L  T09  0.0   0.2+    K172L  T09  0.1+  0.0     K172N  T09  0.2+  0.1+ 
K172L  T09  0.1+  0.2+    K172L  T09  0.1+  0.1+    K174R  T09  0.0   0.0  
K172L  T09  0.1-  0.3+    K172N  T09  0.1+  0.4-    K1946  T09  0.0   0.0  
2017 DF170                                                                      
Epoch 2024 Oct. 17.0 TT = JDT 2460600.5                 Alexandersen            
M   0.81870              (2000.0)            P               Q                  
n   0.00342770     Peri.  175.19464     -0.91530973     +0.39077731             
a  43.5646320      Node    28.43515     -0.37600270     -0.74238850             
e   0.2146513      Incl.   11.81235     -0.14432627     -0.54419888             
P 288              H   10.07          G   0.15           U   8                  
Residuals in seconds of arc
K1644  T09  0.0   0.1+    K172L  T09  0.1-  0.4+    K172N  T09  0.3+  0.1+ 
K1644  T09  0.2+  0.2-    K172L  T09  0.2-  0.2-    K172N  T09  0.0   0.2+ 
K1645  T09  0.1-  0.1+    K172L  T09  0.2-  0.1-    K172N  T09  0.2-  0.1+ 
K1645  T09  0.0   0.0     K172L  T09  0.3+  0.2-    K174R  T09  0.0   0.0  
K1645  T09  0.2-  0.1+    K172N  T09  0.0   0.2-    K174R  T09  0.0   0.0  
2017 DG170                                                                      
Epoch 2024 Oct. 17.0 TT = JDT 2460600.5                 Alexandersen            
M 327.82150              (2000.0)            P               Q                  
n   0.00348771     Peri.  135.73978     -0.57025879     +0.81825897             
a  43.0634526      Node    99.36198     -0.77260982     -0.50426501             
e   0.0459238      Incl.    4.21419     -0.27906803     -0.27598743             
P 283              H    9.52          G   0.15           U   5                  
Residuals in seconds of arc
K1644  T09  0.0   0.1-    K172L  T09  0.2-  0.3-    K174R  T09  0.1-  0.1- 
K1644  T09  0.1+  0.1+    K172N  T09  0.2+  0.2+    K174R  T09  0.0   0.1- 
K1645  T09  0.1-  0.1-    K172N  T09  0.2+  0.2+    K1946  T09  0.1-  0.0  
K1645  T09  0.1-  0.1-    K172N  T09  0.0   0.1+    K1946  T09  0.0   0.1- 
K172L  T09  0.1+  0.2+    K172N  T09  0.1-  0.3+    
K172L  T09  0.1+  0.1-    K172N  T09  0.2-  0.0     
2017 DH170                                                                      
Epoch 2024 Oct. 17.0 TT = JDT 2460600.5                 Alexandersen            
M 344.50138              (2000.0)            P               Q                  
n   0.00329831     Peri.  150.37131     -0.75756558     +0.64665765             
a  44.6966182      Node    70.19505     -0.61596523     -0.66303252             
e   0.1172379      Incl.    5.43052     -0.21605841     -0.37712302             
P 299              H    8.85          G   0.15           U   5                  
Residuals in seconds of arc
K1644  T09  0.1+  0.1+    K172L  T09  0.1+  0.0     K174R  T09  0.0   0.1+ 
K1644  T09  0.0   0.1+    K172N  T09  0.1+  0.1-    K174R  T09  0.0   0.0  
K172L  T09  0.2+  0.0     K172N  T09  0.1-  0.2-    K1943  T09  0.1+  0.0  
K172L  T09  0.0   0.2+    K172N  T09  0.1-  0.2-    K1946  T09  0.0   0.0  
K172L  T09  0.1-  0.1-    K172N  T09  0.0   0.3+    K1946  T09  0.0   0.1+ 
K172L  T09  0.0   0.4-    K172N  T09  0.2-  0.2+    
2017 DJ170                                                                      
Epoch 2024 Oct. 17.0 TT = JDT 2460600.5                 Alexandersen            
M  32.84816              (2000.0)            P               Q                  
n   0.00343009     Peri.   83.31429     -0.94851907     -0.30110304             
a  43.5444437      Node    79.12739     +0.23640463     -0.87947004             
e   0.0673253      Incl.    5.74046     +0.21077104     -0.36860467             
P 287              H    7.83          G   0.15           U   5                  
Residuals in seconds of arc
K1641  T09  0.1-  0.0     K172L  T09  0.1+  0.0     K1742  T09  0.0   0.0  
K1641  T09  0.1+  0.0     K172L  T09  0.1+  0.2+    K174R  T09  0.0   0.1+ 
K1641  T09  0.1-  0.0     K172N  T09  0.1-  0.2-    K1944  T09  0.2-  0.1- 
K172L  T09  0.1+  0.0     K172N  T09  0.0   0.0     K1946  T09  0.1+  0.0  
K172L  T09  0.1-  0.1+    K172N  T09  0.1+  0.1-    K1946  T09  0.0   0.1+ 
K172L  T09  0.1-  0.2+    K1742  T09  0.0   0.0     
M. P. C. Staff               (C) Copyright 2024 MPC           M.P.E.C. 2024-N149
    
    
More information about the Iaude
mailing list